NOAA 16 DEB, 42427

Orbit data source: Space-Track

NOAA 16 DEB, 42427 is space debris in SSO originally from a launch on Thu, 21 Sep 2000 UTC launched from the Air Force Western Test Range (AFWTR). Debris objects in space refer to the collection of defunct objects orbiting the Earth. Examples of debris include non-operational satellites, rocket bodies, and fragments generated from explosions, collisions, or faulty payload assembly.

Loading next visibility...
NOAA 16 DEB details
Identifier
42427, 2000-055TX
Orbit
SSO
Last TLE update8 hours ago
Origin
Flag of USNOAA (US)
ManufacturerUnknown
MissionSpacecraft
Bus & MotorUnknown
MassUnknown
Launch date (UTC)
2000-09-21 (24 years ago)
Launch vehicleUnknown
Launch site
Air Force Western Test Range (AFWTR)
Object type
Payload
Rocket body
Debris
Shape & HBRUnknown
Radar Cross SectionSmall (<0.1 m²)

Expand to show TLE details & history

TLE from 8 hours ago
0 NOAA 16 DEB
1 42427U 00055TX  24339.83062675  .00028586  00000-0  57710-2 0  9998
2 42427  98.9299 186.9276 0047280 143.8796 216.5611 14.60636389435409
Epoch: 2024-12-04T19:56Z
Definitive object data (Epoch: 2024-12-04T19:56:06.151Z)
Latitude-0.00006°
Longitude173.78183°
Altitude720.99 km
Speed7.481 km/s
True Right ascension12h 27m 42s
True Declination0° 00' 00"
Sunlit
Object was in daylight at TLE epoch
Visualization TLE readout
Latitude27.86057°
Longitude169.4179°
Altitude708.309 km
Speed7.497 km/s
Apparent Right ascension13h 04m 32s
Apparent Declination-4° 07' 39"
Sunlit
Object is in daylight
Visualization observer readout
Local Sidereal Time02:14:26
Azimuth28.343° NE
Elevation-50.884°
Doppler factor1
Orbital elements
Apogee altitude721.645 km
Perigee altitude654.825 km
Semi-major axis7,066.372 km
Eccentricity0.004728
Inclination98.9299°
RAAN186.9276°
Arg. of periapsis143.8796°
True anomaly216.23989°
Mean anomaly216.5611°
Eccentric anomaly216.40034°
Mean motion3.65383 °/min
BSTAR0.005771
Orbital period98.53 mins
Loading maneuver chart data...
Loading historical data...
Loading historical data...
Loading historical data...
Loading historical data...
Loading historical data...
Loading historical data...
Loading historical data...

NOAA 16 DEB Visibility forecast

Observer location: undefined°, undefined

Span
Click to sort rows by Start time (UTC) header in descending order
Start Az.
Max El. time (UTC)
Max El. Az.
Max El.
End time (UTC)
End Az.
7 mins2024-12-05 14:09:03.602Z176.117° S2024-12-05 14:12:03.602Z245.281° WSW43.311°2024-12-05 14:16:03.602Z340.142° N
5 mins2024-12-06 02:08:03.602Z56.31° ENE2024-12-06 02:10:03.602Z92.11° ESE22.53°2024-12-06 02:13:03.602Z143.63° SSE
6 mins2024-12-06 03:45:03.602Z341.2° N2024-12-06 03:48:03.602Z281.906° WNW25.961°2024-12-06 03:51:03.602Z235.275° WSW
|